Weather History for Gwinn, MI

Change the Weather History Date:

Wednesday, December 4, 2013

  Actual Average (KESC) Record (KESC)
Temperature  
Mean Temperature 28 °F -  
Max Temperature 34 °F 30 °F 57 °F (1961)
Min Temperature 23 °F 18 °F 0 °F (1972)
Degree Days  
Heating Degree Days 36    
Moisture  
Dew Point 26 °F    
Average Humidity 93    
Maximum Humidity 100    
Minimum Humidity 86    
Precipitation  
Precipitation 0.00 in - - ()
Sea Level Pressure  
Sea Level Pressure 29.75 in    
Wind  
Wind Speed 8 mph (East)    
Max Wind Speed 13 mph    
Max Gust Speed 22 mph    
Visibility 6 miles    
Events Rain , Snow    
Averages and records for this station are not official NWS values.
T = Trace of Precipitation, MM = Missing Value Source: NWS Daily Summary

Daily Weather History Graph

Daily Weather History Graph

Search for Another Location

Airport:

Trip Planner

Search our weather history database for the weather conditions in past years. The results will help you decide how hot, cold, wet, or windy it might be!

Date:

Astronomy

Dec. 04, 2013 Rise Set
Actual Time 8:15 AM EST 5:03 PM EST
Civil Twilight 7:41 AM EST 5:38 PM EST
Nautical Twilight 7:03 AM EST 6:15 PM EST
Astronomical Twilight 6:27 AM EST 6:52 PM EST
Moon 9:41 AM EST (12/4) 7:16 PM EST (12/4)
Length of Visible Light 9h 56m
Length of Day
8h 47m
Waxing Crescent, 4% of the Moon is Illuminated
Dec 4
Waxing Crescent
Dec 9
First Quarter
Dec 17
Full
Dec 25
Last Quarter
Jan 1
New

Hourly Weather History & Observations

Time (EST) Temp. Windchill Dew Point Humidity Pressure Visibility Wind Dir Wind Speed Gust Speed Precip Events Conditions
12:12 AM 23.9 °F 16.8 °F 21.9 °F 92% 29.91 in 10.0 mi ENE 5.8 mph - N/A   Overcast
12:41 AM 23.0 °F 13.9 °F 21.2 °F 93% 29.88 in 10.0 mi NE 8.1 mph - N/A   Overcast
1:01 AM 23.0 °F 13.1 °F 21.2 °F 93% 29.89 in 10.0 mi NE 9.2 mph - N/A   Overcast
1:19 AM 24.8 °F 16.9 °F 21.2 °F 86% 29.91 in 10.0 mi NE 6.9 mph - N/A   Overcast
1:39 AM 24.8 °F 16.9 °F 23.0 °F 93% 29.89 in 10.0 mi ENE 6.9 mph - N/A   Overcast
1:55 AM 24.3 °F 14.6 °F 22.3 °F 92% 29.89 in 10.0 mi NE 9.2 mph - N/A   Overcast
2:00 AM 24.8 °F 16.1 °F 23.0 °F 93% 29.90 in 7.0 mi NE 8.1 mph - N/A   Overcast
2:17 AM 24.4 °F 14.2 °F 22.6 °F 93% 29.91 in 5.0 mi NE 10.4 mph - N/A Snow Light Snow
2:37 AM 24.6 °F 13.8 °F 22.6 °F 92% 29.91 in 3.0 mi NE 11.5 mph - N/A Snow Light Snow
2:57 AM 24.4 °F 14.2 °F 22.6 °F 93% 29.89 in 5.0 mi ENE 10.4 mph - N/A Snow Light Snow
3:17 AM 24.6 °F 15.1 °F 22.8 °F 93% 29.91 in 5.0 mi NE 9.2 mph - N/A Snow Light Snow
3:37 AM 24.6 °F 14.4 °F 23.0 °F 94% 29.89 in 10.0 mi NE 10.4 mph - N/A   Overcast
3:57 AM 24.8 °F 14.6 °F 23.0 °F 93% 29.89 in 10.0 mi ENE 10.4 mph - N/A   Overcast
4:17 AM 24.8 °F 16.1 °F 23.0 °F 93% 29.90 in 10.0 mi ENE 8.1 mph - N/A Snow Light Snow
4:37 AM 24.8 °F 16.9 °F 23.0 °F 93% 29.90 in 7.0 mi ENE 6.9 mph - N/A Snow Light Snow
4:57 AM 24.8 °F 16.1 °F 23.0 °F 93% 29.89 in 5.0 mi ENE 8.1 mph - N/A Snow Light Snow
5:17 AM 24.8 °F 14.6 °F 22.8 °F 92% 29.88 in 3.0 mi East 10.4 mph - N/A Snow Light Snow
5:37 AM 24.8 °F 15.3 °F 22.6 °F 91% 29.87 in 3.0 mi East 9.2 mph - N/A Snow Light Snow
5:57 AM 24.8 °F 16.1 °F 22.6 °F 91% 29.87 in 3.0 mi East 8.1 mph - N/A Snow Light Snow
6:50 AM 24.8 °F 15.3 °F 23.0 °F 93% 29.87 in 10.0 mi East 9.2 mph - N/A   Overcast
7:50 AM 24.8 °F 16.1 °F 23.0 °F 93% 29.86 in 10.0 mi ENE 8.1 mph - N/A   Overcast
8:50 AM 24.8 °F 16.1 °F 23.0 °F 93% 29.86 in 2.0 mi ENE 8.1 mph - N/A Snow Light Snow
9:50 AM 24.8 °F 17.9 °F 23.0 °F 93% 29.86 in 0.5 mi ENE 5.8 mph - N/A Snow Snow
10:50 AM 24.8 °F 15.3 °F 23.0 °F 93% 29.85 in 0.2 mi East 9.2 mph - N/A Snow Snow
11:50 AM 24.8 °F 14.6 °F 23.0 °F 93% 29.79 in 0.5 mi ENE 10.4 mph - N/A Snow Snow
12:50 PM 24.8 °F 17.9 °F 23.0 °F 93% 29.78 in 0.5 mi East 5.8 mph - N/A Snow Snow
1:50 PM 26.6 °F 17.5 °F 23.0 °F 86% 29.79 in 2.0 mi East 9.2 mph - N/A Snow Light Snow
2:50 PM 26.6 °F 16.2 °F 24.8 °F 93% 29.69 in 5.0 mi East 11.5 mph - N/A   Overcast
3:50 PM 28.4 °F 19.1 °F 26.6 °F 93% 29.65 in 3.0 mi East 10.4 mph - N/A   Overcast
4:50 PM 28.4 °F 19.7 °F 26.6 °F 93% 29.59 in 3.0 mi East 9.2 mph - N/A   Overcast
5:47 PM 30.2 °F 24.3 °F 28.4 °F 93% 29.55 in 4.0 mi ESE 5.8 mph - N/A   Overcast
6:50 PM 32.0 °F 24.8 °F 30.2 °F 93% 30.49 in 10.0 mi ESE 8.1 mph - N/A Rain Light Freezing Rain
7:50 PM 32.0 °F 25.6 °F 32.0 °F 100% 29.45 in 3.0 mi ESE 6.9 mph - N/A Snow Light Snow
8:50 PM 33.8 °F 25.3 °F 32.0 °F 93% 29.40 in 3.0 mi SE 11.5 mph - N/A Snow Light Snow
9:45 PM 33.8 °F 24.8 °F 32.0 °F 93% 29.35 in 7.0 mi SE 12.7 mph 17.3 mph N/A Snow Light Snow
10:17 PM 34.3 °F 25.9 °F 33.3 °F 96% 29.33 in 7.0 mi South 11.5 mph 21.9 mph N/A Snow Light Snow
10:37 PM 34.2 °F 26.2 °F 33.3 °F 97% 29.33 in 10.0 mi SSE 10.4 mph - N/A   Overcast
10:57 PM 34.7 °F 27.5 °F 33.8 °F 97% 29.31 in 3.0 mi SSE 9.2 mph - N/A Rain Light Rain
11:17 PM 34.7 °F 26.9 °F 33.8 °F 97% 29.29 in 4.0 mi SSE 10.4 mph - N/A Rain Light Rain
11:37 PM 34.7 °F 28.1 °F 34.0 °F 97% 29.28 in 5.0 mi South 8.1 mph - N/A Rain Light Rain
11:57 PM 34.9 °F 29.0 °F 34.2 °F 97% 29.28 in 1.5 mi South 6.9 mph - N/A   Overcast